Terug naar catalogus

ATLAS 5 CENTAUR DEB

ActiefHEO
NORAD 44642·DEBRIS·🇺🇸 United States

Gelanceerd Oct 17, 2018 vanaf Cape Canaveral Space Force Station

Loading…

Volgende Passages (komende 24 uur)

TLE

VersSource: Space-Track

Epoch: Sep 14, 2026, 11:55 UTC

1 44642U 18079C   26257.49675796 -.00000172  00000-0  00000-0 0  9991
2 44642  13.3538  19.6239 4641110 349.7452   3.2693  1.84469704 53291

Volg ATLAS 5 CENTAUR DEB in realtime met AllMySat

Download on the App Store